Location: Newark
(41.6500°N, 71.4833°W)
Time: 11:35:19
(UTC+00:00)

Transit 2A Rocket - Pass Details

Date: 31 January 2020
Orbit: 591 x 912 km, 66.7° (Epoch: 23 February)

Event Time Altitude Azimuth Distance (km) Brightness Sun altitude
Rises 09:58:55 0° 258° (WSW) 2,822 - -22.7°
Reaches altitude 10° 10:02:03 10° 283° (WNW) 1,924 - -22.1°
Maximum altitude 10:04:28 15° 318° (NW) 1,654 - -21.6°
Exits shadow 10:06:55 10° 352° (N) 1,954 7.0 -21.2°
Drops below altitude 10° 10:06:56 10° 352° (N) 1,959 7.0 -21.2°
Sets 10:10:12 0° 17° (NNE) 2,907 8.2 -20.6°
